Powrót do katalogu

STARLINK-35818

AktywnyŁącznośćVLEO
NORAD 66540·PAYLOAD·🇺🇸 United States

Wystrzelony Nov 19, 2025 z Cape Canaveral Space Force Station

Loading…

Następne Przeloty (najbliższe 24 godziny)

TLE

ŚwieżeSource: CelesTrak SupGP

Epoka: Sep 14, 2026, 22:39 UTC

1 66540C 25265AA  26257.94423611  .00027220  00000+0  98581-3 0  2576
2 66540  43.0026 289.5566 0001725 270.6217  46.2213 15.27568344    13

Śledź STARLINK-35818 w czasie rzeczywistym z AllMySat

Download on the App Store